Location: St. Louis
(38.6270°N, 90.1994°W)
Time: 00:59:56
(UTC-06:00)

Vanguard 2 - Pass Details

Date: 03 December 2021
Orbit: 553 x 2936 km, 32.9° (Epoch: 16 January)

Event Time Altitude Azimuth Distance (km) Brightness Sun altitude
Rises 20:09:32 0° 266° (W) 4,755 12.4 -40.4°
Reaches altitude 10° 20:13:44 10° 249° (WSW) 4,179 11.8 -41.2°
Maximum altitude 20:20:55 18° 211° (SSW) 4,121 11.3 -42.6°
Drops below altitude 10° 20:29:55 10° 175° (S) 5,364 11.7 -44.3°
Enters shadow 20:36:07 - 161° (SSE) 6,544 12.1 -45.5°
Sets 20:36:39 0° 160° (SSE) 6,648 - -45.6°
